Location: Biltmore Gardens
(41.6070°N, 83.4666°W)
Time: 15:22:24
(UTC+00:00)

CZ-4B R/B - Pass Details

Date: 14 July 2020
Orbit: 702 x 803 km, 98.9° (Epoch: 12 August)

Event Time Altitude Azimuth Distance (km) Brightness Sun altitude
Rises 07:20:09 0° 17° (NNE) 3,236 8.2 -22.7°
Reaches altitude 10° 07:22:32 10° 21° (NNE) 2,290 7.1 -22.5°
Maximum altitude 07:27:30 60° 101° (E) 848 3.7 -22.1°
Enters shadow 07:28:58 42° 159° (SSE) 1,051 3.9 -21.9°
